Regional Weather Roundup
Issued by NWS Little Rock, AR

Home | Current Version | Previous Version | Graphics & Text | Print | Product List | Glossary On
Versions: 1 2 3 4 5 6 7 8 9 10 11 12 13 14 15 16 17 18 19 20 21 22 23 24 25 26 27 28 29 30 31 32 33 34 35 36 37 38 39 40 41 42 43 44 45 46 47 48 49 50
000
ASUS44 KLZK 221105
RWRLZK

WEATHER ROUNDUP FOR ARKANSAS
NATIONAL WEATHER SERVICE LITTLE ROCK AR
600 AM CDT TUE JUL 22 2014

NOTE: "FAIR" INDICATES FEW OR NO CLOUDS BELOW 12,000 FEET WITH NO
SIGNIFICANT WEATHER AND/OR OBSTRUCTIONS TO VISIBILITY.

ARZ001-003-010-029-221200-
NORTHWEST ARKANSAS

CITY           SKY/WX    TMP DP  RH WIND       PRES   REMARKS
FAYETTEVILLE   CLEAR     63  63 100 CALM      30.10R
FORT SMITH     CLEAR     71  69  93 NE3       30.07R
HARRISON       CLEAR     67  66  97 SE3       30.12R
BENTONVILLE    CLEAR     66  63  88 SE3       30.11R
ROGERS         CLEAR     68  65  90 SE5       30.11R
SILOAM SPGS    CLEAR     68  61  77 SE5       30.11R
HIGHFILL       CLEAR     67  66  97 S3        30.10R
SPRINGDALE     PTCLDY    68  66  94 CALM      30.12
$$

ARZ004-005-016-221200-
NORTH CENTRAL ARKANSAS

CITY           SKY/WX    TMP DP  RH WIND       PRES   REMARKS
BATESVILLE     CLEAR     64  63  94 CALM      30.10R
FLIPPIN        CLEAR     63  61  94 CALM      30.11S
MTN HOME       CLEAR     65  64  97 CALM      30.10R
$$

ARZ040-041-221200-
WEST CENTRAL ARKANSAS

CITY           SKY/WX    TMP DP  RH WIND       PRES   REMARKS
MENA           CLOUDY    68  66  94 CALM      30.11R VSB 1/2
MOUNT IDA      CLOUDY    64  63  96 CALM      30.08S FOG
$$

ARZ009-017-025-026-028-221200-
NORTHEAST ARKANSAS

CITY           SKY/WX    TMP DP  RH WIND       PRES   REMARKS
CORNING        FAIR      66  66 100 CALM      30.11R FOG
JONESBORO      CLEAR     63  62  97 CALM      30.09R FOG
NEWPORT        CLEAR     66  65  97 N10       30.10R FOG
WALNUT RIDGE   MOCLDY    64  36  34 NW3       30.09R VSB 1/2
BLYTHEVILLE    CLEAR     67  66  97 N3        30.09R
$$

ARZ022-023-033-042-044-221200-
CENTRAL ARKANSAS

CITY           SKY/WX    TMP DP  RH WIND       PRES   REMARKS
LITTLE ROCK    PTCLDY    69  65  86 CALM      30.08S
N LITTLE ROCK    N/A     68  68  99 N2        30.08S
JACKSONVILLE   CLEAR     65  64  96 CALM      30.08S
SEARCY         CLEAR     65  65 100 NW3       30.10S FOG
HOT SPRINGS    FOG       67  66  97 CALM      30.10R VSB 1/2
RUSSELLVILLE   PTCLDY    67  64  90 CALM      30.09R FOG
CLINTON        FOG       64  64 100 CALM      30.12R VSB 1/2
$$

ARZ036-221200-
EAST ARKANSAS

CITY           SKY/WX    TMP DP  RH WIND       PRES   REMARKS
WEST MEMPHIS   CLEAR     68  68 100 CALM      30.07S FOG
$$

ARZ050-053-066-070-073-221200-
SOUTHWEST ARKANSAS

CITY           SKY/WX    TMP DP  RH WIND       PRES   REMARKS
ARKADELPHIA    CLOUDY    67  67 100 CALM      30.09R FOG
TEXARKANA      CLEAR     68  68 100 E3        30.07R FOG
EL DORADO      PTCLDY    65  65 100 NW3       30.08R
DE QUEEN       FOG       66  65  96 CALM      30.06R VSB 1/2
$$

ARZ056-057-069-221200-
SOUTHEAST ARKANSAS

CITY           SKY/WX    TMP DP  RH WIND       PRES   REMARKS
PINE BLUFF     PTCLDY    67  65  93 CALM      30.08R FOG
STUTTGART      CLEAR     68  64  88 N5        30.08S
MONTICELLO     CLEAR     67  65  93 CALM      30.06R

$$





USA.gov is the U.S. government's official web portal to all federal, state and local government web resources and services.